TimeMST,TemperatureF,Dew PointF,Humidity,Sea Level PressureIn,VisibilityMPH,Wind Direction,Wind SpeedMPH,Gust SpeedMPH,PrecipitationIn,Events,Conditions,WindDirDegrees,DateUTC
12:15 AM,39.2,19.4,45,29.42,10.0,SW,15.0,18.4,N/A,,Overcast,220,2013-11-16 07:15:00
12:35 AM,37.4,19.4,48,29.41,10.0,SSW,10.4,-,N/A,,Overcast,210,2013-11-16 07:35:00
12:55 AM,37.4,21.2,52,29.41,10.0,West,6.9,-,N/A,,Overcast,260,2013-11-16 07:55:00
1:15 AM,37.4,19.4,48,29.40,10.0,SW,10.4,-,N/A,,Overcast,230,2013-11-16 08:15:00
1:35 AM,37.4,21.2,52,29.39,10.0,West,4.6,-,N/A,,Overcast,270,2013-11-16 08:35:00
1:55 AM,37.4,19.4,48,29.38,10.0,SSW,5.8,-,N/A,,Overcast,200,2013-11-16 08:55:00
2:15 AM,37.4,21.2,52,29.38,10.0,SSW,16.1,19.6,N/A,,Overcast,210,2013-11-16 09:15:00
2:55 AM,37.4,21.2,52,29.37,10.0,SSW,12.7,-,N/A,,Overcast,200,2013-11-16 09:55:00
3:15 AM,37.4,21.2,52,29.37,10.0,South,12.7,17.3,N/A,,Overcast,180,2013-11-16 10:15:00
3:35 AM,35.6,23.0,60,29.35,10.0,SSE,9.2,-,N/A,,Overcast,160,2013-11-16 10:35:00
3:55 AM,37.4,21.2,52,29.35,10.0,SSE,11.5,-,N/A,,Overcast,160,2013-11-16 10:55:00
4:15 AM,35.6,23.0,60,29.34,10.0,SE,10.4,-,N/A,,Overcast,130,2013-11-16 11:15:00
4:35 AM,35.6,24.8,65,29.33,10.0,SE,9.2,-,N/A,,Overcast,130,2013-11-16 11:35:00
4:55 AM,35.6,23.0,60,29.32,10.0,SSE,6.9,-,N/A,,Overcast,150,2013-11-16 11:55:00
5:15 AM,37.4,21.2,52,29.32,10.0,SSE,9.2,-,N/A,,Overcast,160,2013-11-16 12:15:00
5:35 AM,37.4,23.0,56,29.31,10.0,South,16.1,-,N/A,,Overcast,170,2013-11-16 12:35:00
5:55 AM,37.4,21.2,52,29.31,10.0,SSE,12.7,20.7,N/A,,Overcast,150,2013-11-16 12:55:00
6:15 AM,37.4,23.0,56,29.30,10.0,SSE,10.4,16.1,N/A,,Overcast,150,2013-11-16 13:15:00
6:35 AM,37.4,21.2,52,29.30,10.0,South,5.8,-,N/A,,Overcast,170,2013-11-16 13:35:00
6:55 AM,37.4,21.2,52,29.30,10.0,South,9.2,17.3,N/A,,Mostly Cloudy,180,2013-11-16 13:55:00
7:15 AM,37.4,21.2,52,29.30,10.0,South,10.4,-,N/A,,Scattered Clouds,180,2013-11-16 14:15:00
7:35 AM,37.4,21.2,52,29.30,10.0,SSW,10.4,-,N/A,,Mostly Cloudy,200,2013-11-16 14:35:00
7:55 AM,37.4,19.4,48,29.30,10.0,SSW,12.7,-,N/A,,Mostly Cloudy,200,2013-11-16 14:55:00
8:15 AM,37.4,19.4,48,29.29,10.0,SSW,12.7,-,N/A,,Clear,200,2013-11-16 15:15:00
8:35 AM,37.4,21.2,52,29.29,10.0,SSW,15.0,-,N/A,,Partly Cloudy,200,2013-11-16 15:35:00
8:55 AM,37.4,21.2,52,29.30,10.0,SSW,12.7,-,N/A,,Mostly Cloudy,200,2013-11-16 15:55:00
9:15 AM,39.2,21.2,49,29.29,10.0,SSW,18.4,25.3,N/A,,Mostly Cloudy,200,2013-11-16 16:15:00
9:35 AM,41.0,21.2,45,29.28,10.0,SSW,17.3,27.6,N/A,,Scattered Clouds,200,2013-11-16 16:35:00
9:55 AM,42.8,19.4,39,29.28,10.0,SSW,18.4,25.3,N/A,,Mostly Cloudy,200,2013-11-16 16:55:00
10:15 AM,42.8,21.2,42,29.28,10.0,SSW,23.0,28.8,N/A,,Mostly Cloudy,200,2013-11-16 17:15:00
10:35 AM,42.8,21.2,42,29.28,10.0,SSW,21.9,28.8,N/A,,Mostly Cloudy,210,2013-11-16 17:35:00
10:55 AM,42.8,21.2,42,29.28,10.0,SW,13.8,24.2,N/A,,Mostly Cloudy,220,2013-11-16 17:55:00
11:15 AM,42.8,19.4,39,29.28,10.0,SSW,16.1,25.3,N/A,,Mostly Cloudy,210,2013-11-16 18:15:00
11:35 AM,42.8,23.0,46,29.28,10.0,SSW,20.7,-,N/A,,Overcast,210,2013-11-16 18:35:00
11:55 AM,42.8,21.2,42,29.30,10.0,WSW,8.1,-,N/A,,Mostly Cloudy,250,2013-11-16 18:55:00
12:15 PM,33.8,24.8,70,29.33,2.5,NW,9.2,23.0,N/A,,Overcast,320,2013-11-16 19:15:00
12:35 PM,33.8,26.6,75,29.35,10.0,NNE,10.4,-,N/A,,Overcast,30,2013-11-16 19:35:00
12:55 PM,33.8,26.6,75,29.36,3.0,East,6.9,-,N/A,,Overcast,80,2013-11-16 19:55:00
1:15 PM,32.0,26.6,80,29.38,1.8,Calm,Calm,-,N/A,,Overcast,0,2013-11-16 20:15:00
1:35 PM,33.8,28.4,81,29.37,10.0,SSE,3.5,-,N/A,,Overcast,150,2013-11-16 20:35:00
1:55 PM,32.0,28.4,87,29.38,10.0,South,6.9,-,N/A,,Overcast,190,2013-11-16 20:55:00
2:15 PM,33.8,28.4,81,29.38,10.0,SW,8.1,-,N/A,,Overcast,230,2013-11-16 21:15:00
2:35 PM,33.8,26.6,75,29.39,10.0,SW,4.6,-,N/A,,Overcast,220,2013-11-16 21:35:00
2:55 PM,35.6,24.8,65,29.39,10.0,SE,5.8,-,N/A,,Mostly Cloudy,140,2013-11-16 21:55:00
3:15 PM,35.6,21.2,56,29.39,10.0,SSE,8.1,-,N/A,,Scattered Clouds,150,2013-11-16 22:15:00
3:35 PM,37.4,21.2,52,29.41,10.0,NNE,5.8,-,N/A,,Mostly Cloudy,20,2013-11-16 22:35:00
3:55 PM,37.4,21.2,52,29.42,10.0,WSW,3.5,-,N/A,,Overcast,240,2013-11-16 22:55:00
4:15 PM,35.6,24.8,65,29.44,10.0,North,3.5,-,N/A,,Mostly Cloudy,360,2013-11-16 23:15:00
4:35 PM,30.2,23.0,75,29.46,10.0,North,9.2,-,N/A,,Mostly Cloudy,350,2013-11-16 23:35:00
4:55 PM,30.2,26.6,86,29.47,10.0,WNW,5.8,-,N/A,,Overcast,300,2013-11-16 23:55:00
5:15 PM,30.2,24.8,80,29.49,10.0,SSW,6.9,-,N/A,,Mostly Cloudy,200,2013-11-17 00:15:00
5:35 PM,30.2,24.8,80,29.50,10.0,NW,5.8,-,N/A,,Mostly Cloudy,320,2013-11-17 00:35:00
5:55 PM,30.2,21.2,69,29.51,10.0,NNE,4.6,-,N/A,,Scattered Clouds,20,2013-11-17 00:55:00
6:15 PM,30.2,24.8,80,29.53,10.0,Calm,Calm,-,N/A,,Mostly Cloudy,0,2013-11-17 01:15:00
6:35 PM,30.2,24.8,80,29.54,10.0,North,3.5,-,N/A,,Mostly Cloudy,360,2013-11-17 01:35:00
6:55 PM,28.4,24.8,86,29.55,10.0,SSW,4.6,-,N/A,,Mostly Cloudy,210,2013-11-17 01:55:00
7:15 PM,28.4,23.0,80,29.56,10.0,Calm,Calm,-,N/A,,Mostly Cloudy,0,2013-11-17 02:15:00
7:35 PM,26.6,21.2,80,29.57,10.0,SE,4.6,-,N/A,,Overcast,140,2013-11-17 02:35:00
8:15 PM,26.6,24.8,93,29.58,10.0,SE,3.5,-,N/A,,Mostly Cloudy,130,2013-11-17 03:15:00
8:35 PM,26.6,21.2,80,29.59,10.0,Calm,Calm,-,N/A,,Mostly Cloudy,0,2013-11-17 03:35:00
8:55 PM,26.6,21.2,80,29.60,10.0,SE,3.5,-,N/A,,Mostly Cloudy,140,2013-11-17 03:55:00
9:15 PM,26.6,24.8,93,29.61,10.0,SE,3.5,-,N/A,,Overcast,140,2013-11-17 04:15:00
9:35 PM,26.6,24.8,93,29.62,10.0,Calm,Calm,-,N/A,,Overcast,0,2013-11-17 04:35:00
9:55 PM,28.4,23.0,80,29.62,10.0,ESE,4.6,-,N/A,,Overcast,120,2013-11-17 04:55:00
10:15 PM,28.4,24.8,86,29.63,10.0,Calm,Calm,-,N/A,,Overcast,0,2013-11-17 05:15:00
10:35 PM,26.6,24.8,93,29.64,10.0,NNW,3.5,-,N/A,,Overcast,340,2013-11-17 05:35:00
10:55 PM,26.6,24.8,93,29.64,10.0,North,4.6,-,N/A,,Overcast,10,2013-11-17 05:55:00
11:15 PM,26.6,24.8,93,29.65,10.0,Calm,Calm,-,N/A,,Overcast,0,2013-11-17 06:15:00
11:35 PM,28.4,24.8,86,29.66,10.0,SSW,3.5,-,N/A,,Overcast,200,2013-11-17 06:35:00
11:55 PM,26.6,23.0,86,29.66,10.0,Calm,Calm,-,N/A,,Overcast,0,2013-11-17 06:55:00